Simultaneous Nadir Overpasses (SNOs) Predictions

Prediction of SNOs between GOES-14 and NOAA-20 Satellite Orbit:

Table of predicted SNOs for the next 14.0 days since TLE Epoch: 12/25/2021
Index Date Time (GOES-14) GOES-14 Lat,Lon NOAA-20 Lat,Lon Distance(km) Time Diff (sec)
1 12/26/2021 08:38:19 -0.00,-104.53 0.74,-107.97 391.54 80
2 12/27/2021 08:16:53 0.01,-104.53 -0.23,-103.43 125.62 80
3 12/29/2021 20:20:01 -0.00,-104.21 -0.02,-104.17 5.06 80
4 01/01/2022 08:25:42 -0.00,-104.54 0.10,-104.91 42.38 80
5 01/02/2022 08:04:17 0.01,-104.54 -0.93,-100.38 474.39 80
6 01/03/2022 20:26:10 0.00,-104.20 -0.34,-105.65 165.95 80
7 01/04/2022 20:10:05 -0.00,-104.20 0.69,-101.12 351.44 80
8 01/06/2022 08:31:52 -0.01,-104.54 0.41,-106.40 211.19 80
9 01/07/2022 08:10:27 -0.00,-104.55 -0.62,-101.86 306.11 80
